[[{"header":{"parameterUnit":"m.s-1","parameterCategory":1,"la1":30.2992,"la2":30.254,"lo1":-89.0895,"lo2":-89.0443,"dy":0.0025,"dx":0.0025,"nx":19,"ny":19,"refTime":"2026-04-24T09:00:00:Z","depth":0,"parameterNumber":2,"parameterNumberName":"U-component_of_WINDS"},"data":[0,0,0,-0.4403,-0.4404,-0.4473,-0.4473,-0.4553,-0.4553,0,0,0,0,0,0,0,0,0,0,0,-0.4376,-0.4376,-0.4403,-0.4405,-0.4473,-0.4473,-0.4553,-0.4553,0,0,0,0,0,0,0,0,0,0,0,-0.4376,-0.4376,-0.4376,-0.4405,-0.4473,-0.4473,-0.4553,-0.4504,0,0,0,0,0,0,0,0,0,0,-0.4439,-0.4407,-0.4376,-0.4376,-0.4405,-0.4473,-0.4473,-0.4502,-0.4507,-0.4518,0,-0.4523,0,-0.4539,-0.4558,-0.4558,0,0,0,-0.441,-0.4402,-0.4427,-0.4376,-0.4406,-0.4473,-0.4444,-0.4505,-0.4511,-0.4524,-0.4524,-0.4527,-0.454,-0.4558,-0.4559,-0.4594,-0.4594,0,0,-0.4407,-0.4385,-0.4423,-0.443,-0.4417,-0.4442,-0.4446,-0.4509,-0.4508,-0.4524,-0.4529,-0.4542,-0.4559,-0.4559,-0.4594,-0.4594,0,0,0,-0.4392,-0.4382,-0.4405,-0.4427,-0.4439,-0.4443,-0.4448,-0.4505,-0.4515,-0.453,-0.4543,-0.4559,-0.456,-0.4594,-0.4594,-0.4566,0,0,0,-0.439,-0.4373,-0.4403,-0.4391,-0.4438,-0.4473,-0.4443,-0.451,-0.4518,-0.4542,-0.4559,-0.4561,-0.4594,-0.4594,-0.4568,-0.4557,0,0,0,-0.4374,-0.4372,-0.4379,-0.4389,-0.4418,-0.4472,-0.4485,-0.4512,-0.4525,-0.4558,-0.4561,-0.4594,-0.4594,-0.4568,-0.4559,-0.456,0,0,0,-0.4351,-0.4354,-0.4378,-0.4387,-0.4417,-0.4454,-0.4485,-0.4515,-0.454,-0.456,-0.4594,-0.4594,-0.4569,-0.456,-0.4561,-0.4557,-0.4553,0,0,-0.4343,-0.4352,-0.4359,-0.4383,-0.4409,-0.4445,-0.4469,-0.4514,-0.4538,-0.4575,-0.4576,-0.4567,-0.4559,-0.456,-0.4539,-0.4536,0,0,0,-0.4349,-0.4354,-0.4366,-0.4388,-0.4421,-0.4449,-0.4492,-0.4509,-0.454,-0.4552,-0.4569,-0.4565,-0.4566,-0.4565,-0.4563,-0.4566,-0.4593,-0.4593,-0.4593,-0.4307,-0.4336,-0.435,-0.4388,-0.4409,-0.4453,-0.4474,-0.4504,-0.4529,-0.4532,-0.4543,-0.4526,-0.4524,-0.4523,-0.4525,-0.4543,-0.4543,-0.4543,-0.4543,-0.4298,-0.4309,-0.4341,-0.4365,-0.4397,-0.4419,-0.4463,-0.448,-0.4506,-0.4521,-0.4524,-0.4537,-0.4518,-0.4522,-0.4542,-0.4542,-0.4542,-0.4542,-0.4542,-0.4273,-0.4284,-0.4303,-0.4338,-0.4362,-0.4401,-0.4424,-0.4453,-0.4481,-0.4484,-0.4499,-0.4499,-0.4504,-0.4489,-0.4489,-0.4489,-0.4489,-0.4489,-0.4489,-0.424,-0.4263,-0.4277,-0.4313,-0.4331,-0.4358,-0.4403,-0.4423,-0.4452,-0.4471,-0.4472,-0.4496,-0.451,-0.4513,-0.4488,-0.4488,-0.4488,-0.4488,-0.4488,-0.422,-0.4229,-0.4252,-0.4269,-0.4314,-0.4336,-0.4373,-0.441,-0.443,-0.4441,-0.4465,-0.4471,-0.4483,-0.4486,-0.4488,-0.4458,-0.4458,-0.4458,-0.4458,-0.4199,-0.4208,-0.4238,-0.4264,-0.4294,-0.4329,-0.4356,-0.4392,-0.4431,-0.4445,-0.4454,-0.446,-0.4461,-0.4473,-0.4476,-0.4479,-0.4447,-0.4447,-0.4447,-0.4188,-0.4201,-0.4217,-0.4253,-0.429,-0.4322,-0.4348,-0.438,-0.4426,-0.4447,-0.4458,-0.4458,-0.4469,-0.447,-0.4491,-0.4495,-0.4501,0,0]},{"header":{"parameterUnit":"m.s-1","parameterCategory":1,"la1":30.2992,"la2":30.254,"lo1":-89.0895,"lo2":-89.0443,"dy":0.0025,"dx":0.0025,"nx":19,"ny":19,"refTime":"2026-04-24T09:00:00:Z","depth":0,"parameterNumber":3,"parameterNumberName":"V-component_of_WINDS"},"data":[0,0,0,5.0325,5.0327,5.0403,5.0404,5.0514,5.0515,0,0,0,0,0,0,0,0,0,0,0,5.0313,5.0314,5.0325,5.0327,5.0403,5.0404,5.0514,5.0515,0,0,0,0,0,0,0,0,0,0,0,5.0312,5.0314,5.0315,5.0327,5.0403,5.0404,5.0514,5.0451,0,0,0,0,0,0,0,0,0,0,5.0374,5.0374,5.0313,5.0315,5.0328,5.0403,5.0404,5.0448,5.0455,5.0486,0,5.0519,0,5.0519,5.0524,5.0524,0,0,0,5.0319,5.0368,5.038,5.0315,5.0329,5.0403,5.0367,5.0452,5.046,5.0496,5.0521,5.0524,5.0521,5.0525,5.0525,5.074,5.0742,0,0,5.0314,5.0332,5.0374,5.0385,5.0377,5.0364,5.0369,5.0456,5.0483,5.0521,5.0527,5.0523,5.0526,5.0527,5.0739,5.0741,0,0,0,5.0308,5.0329,5.0338,5.0381,5.0394,5.0367,5.0372,5.0479,5.0481,5.0528,5.0524,5.0526,5.0528,5.0737,5.0739,5.0827,0,0,0,5.0305,5.0325,5.0337,5.0348,5.0393,5.0438,5.0394,5.0475,5.0484,5.0524,5.0526,5.0529,5.0736,5.0738,5.0821,5.0865,0,0,0,5.0304,5.0325,5.034,5.0349,5.0382,5.0436,5.0443,5.0476,5.0483,5.0525,5.053,5.0735,5.0738,5.0816,5.0857,5.0927,0,0,0,5.0308,5.0415,5.0342,5.046,5.0382,5.0491,5.0442,5.0521,5.0568,5.0527,5.0736,5.0739,5.0814,5.0851,5.0922,5.099,5.1021,0,0,5.0453,5.0433,5.0502,5.0438,5.0565,5.0478,5.0616,5.0641,5.0627,5.0703,5.0708,5.0823,5.0856,5.0926,5.1183,5.1207,0,0,0,5.0554,5.0603,5.0633,5.0679,5.0702,5.0725,5.0727,5.0736,5.0799,5.0671,5.0867,5.0886,5.0926,5.0958,5.0979,5.1012,5.0755,5.0754,5.0754,5.0784,5.0763,5.0875,5.0863,5.0908,5.091,5.0943,5.0955,5.0919,5.0966,5.0989,5.1147,5.1185,5.1201,5.1236,5.1023,5.1023,5.1023,5.1024,5.0995,5.1062,5.1013,5.1104,5.108,5.1155,5.116,5.1133,5.1198,5.1128,5.1163,5.1089,5.1228,5.1257,5.103,5.1029,5.1028,5.1027,5.1027,5.1144,5.1172,5.1183,5.1248,5.1299,5.1282,5.1348,5.1323,5.13,5.1334,5.1355,5.1354,5.1349,5.1346,5.1347,5.1347,5.1348,5.1348,5.1348,5.1295,5.1304,5.1363,5.1397,5.1424,5.1455,5.1457,5.1481,5.1502,5.1479,5.1479,5.1438,5.1246,5.1198,5.1357,5.1355,5.1354,5.1353,5.1353,5.1518,5.1463,5.1556,5.1583,5.162,5.1673,5.164,5.1692,5.1709,5.1742,5.1694,5.1555,5.1533,5.1516,5.1477,5.1698,5.1698,5.1698,5.1698,5.1644,5.163,5.172,5.1764,5.1804,5.1784,5.1887,5.189,5.1883,5.1892,5.1856,5.1801,5.1785,5.1772,5.175,5.1712,5.1989,5.1989,5.1989,5.178,5.1769,5.1863,5.1858,5.1885,5.1908,5.2005,5.2055,5.2036,5.2001,5.1898,5.1885,5.1796,5.1769,5.1732,5.1698,5.1629,0,0]}]]